Location: Unspecified
(0.0000°N, 0.0000°E)
Time: 01:02:29
(UTC+00:00)

Courier 1B Rocket - Pass Details

Date: 22 December 2018
Orbit: 920 x 1202 km, 28.3° (Epoch: 18 January)

Event Time Altitude Azimuth Distance (km) Brightness Sun altitude
Rises 00:55:28 0° 224° (SW) 3,858 - -62.8°
Reaches altitude 10° 00:58:35 10° 215° (SW) 2,853 - -62.4°
Maximum altitude 01:04:41 33° 153° (SSE) 1,610 - -61.6°
Drops below altitude 10° 01:10:26 10° 90° (E) 2,682 - -60.7°
Sets 01:13:16 0° 81° (E) 3,596 - -60.3°
